Regional Weather Roundup
Issued by NWS Grand Forks, ND

Home | Current Version | Previous Version | Text Only | Print | Product List | Glossary Off
Versions: 1 2 3 4 5 6 7 8 9 10 11 12 13 14 15 16 17 18 19 20 21 22 23 24 25 26 27 28 29 30 31 32 33 34 35 36 37 38 39 40 41 42 43 44 45 46 47 48 49 50

000
ASUS43 KFGF 190510
RWRFGF
PRAIRIE TO PINES  WEATHER ROUNDUP
NATIONAL WEATHER SERVICE EASTERN NORTH DAKOTA/GRAND FORKS ND
1100 PM CST WED JAN 18 2017

 **SATELLITE DATA USED TO AUGMENT SKY COVER AT AUTOMATED STATIONS**
 *****  WEATHER ACROSS EASTERN NORTH DAKOTA  *****

CITY           SKY/WX    TMP DP  RH WIND       PRES   REMARKS
GRAND FORKS    FAIR      26  20  77 S17       29.62F WCI  13
GRAND FRKS AFB FAIR      27  22  81 SW9       29.61F WCI  18
DEVILS LAKE    FAIR      31  23  72 SE5       29.57F
FARGO          FAIR      30  25  81 S8        29.68F WCI  22
WAHPETON ARPT  FAIR      27  23  86 SE7       29.71F WCI  19
$$

 ***** WEATHER ACROSS CENTRAL AND WESTERN NORTH DAKOTA  *****

CITY           SKY/WX    TMP DP  RH WIND       PRES   REMARKS
BISMARCK       FAIR      20  15  81 E6        29.60F WCI  12
MINOT          FAIR      35  26  69 S5        29.50S
JAMESTOWN      FAIR      23  20  88 S7        29.61F WCI  15
MINOT AFB      NOT AVBL
GARRISON         N/A     21  18  88 CALM      29.54F
WILLISTON      FAIR      26  22  84 SW5       29.54R WCI  20
DICKINSON      FAIR      30  21  69 NW12      29.54R WCI  20
HETTINGER      FAIR      22  16  78 CALM      29.56F
$$

 *****  OTHER AIRPORT OBSERVATIONS IN OUR AREA  *****

CITY           SKY/WX    TMP DP  RH WIND       PRES   REMARKS
WALHALLA       NOT AVBL
GRAFTON AIRPOR FAIR      25  23  93 S13       29.61F WCI  13
VALLEY CITY AR FAIR      27  25  93 S7        29.65F WCI  19
CANDO          NOT AVBL
CAVALIER APRT    N/A     27  25  93 S14       29.56S WCI  15
GWINNER        FAIR      23  19  86 S8        29.67F WCI  14
SHEYENNE NWR     N/A     22  18  85 S5        29.95S WCI  16
ROLLA            N/A    N/A N/A N/A MISG        N/A
 ***** THE ABOVE OBSERVATIONS ARE NON NWS ARE NOT QUALITY
       CONTROLLED AND MAY MIS-REPORT RAIN FOR SNOW...
$$

  *****  WEATHER ACROSS NORTHERN MINNESOTA  *****

CITY           SKY/WX    TMP DP  RH WIND       PRES   REMARKS
FLAG ISLAND    FAIR      21  19  93 S10       29.62S WCI  10
WARROAD        FAIR      30  25  80 S7        29.62F WCI  23
ROSEAU         FAIR      32  25  74 S13       29.62S WCI  22
HALLOCK        FAIR      27  21  80 S17       29.59F WCI  14
THF RVR FALLS  FAIR      30  23  75 S13       29.65F WCI  20
BAUDETTE       FAIR      31  23  72 S7        29.65F WCI  24
WASKISH        FAIR      36  27  69 S6        29.67F
CROOKSTON      FAIR      30  25  80 S18       29.66F WCI  18
GREENBUSH NDAW   N/A     28  25  86 S13         N/A  WCI  18
$$
  *****  WEATHER ACROSS CENTRAL AND WEST MINNESOTA  *****

CITY           SKY/WX    TMP DP  RH WIND       PRES   REMARKS
FOSSTON        FAIR      27  21  80 S10       29.68S WCI  17
BEMIDJI        FAIR      30  23  76 SE5       29.70F WCI  25
PARK RAPIDS    FAIR      24  19  81 SE8       29.72S WCI  15
ELBOW LAKE     FAIR      29  28  94 E10       29.72F FOG     WCI  20
WADENA         FAIR      25  21  86 SE5       29.73F WCI  19
DETROIT LAKES  FAIR      28  23  80 SE9       29.71F WCI  20
MOORHEAD       FAIR      28  25  86 S12       29.70F WCI  18
FERGUS FALLS   FAIR      30  27  86 SE9       29.76F WCI  22
MORRIS MN      FAIR      27  25  93 SE8       29.72F FOG     WCI  18
STAPLES        FAIR      27  25  93 S3        29.74F
$$
  *****  WEATHER ELSEWHERE ACROSS MINNESOTA  *****

CITY           SKY/WX    TMP DP  RH WIND       PRES   REMARKS
DULUTH         FAIR      33  28  81 SW8       29.77F
INTRNTL FALLS  FAIR      28  22  78 S5        29.69S WCI  23
ELY            FAIR      25  21  86 CALM      29.75F
CLOQUET        FAIR      30  27  86 S3        29.78F
WHEATON        FAIR      34  32  93 SE13      29.73F WCI  25
BRAINERD       FAIR      29  28  96 S8        29.77S FOG     WCI  21
HIBBING        FAIR      23  22  96 S3        29.76S
ALEXANDRIA     FAIR      26  25  96 S8        29.74F WCI  18
SAINT CLOUD    FOG       26  26 100 SE7       29.79S VSB 1   WCI  18
MINNEAPOLIS    FAIR      32  29  88 SE6       29.84S
$$

  *****  WEATHER ACROSS SOUTH DAKOTA  *****

CITY           SKY/WX    TMP DP  RH WIND       PRES   REMARKS
SIOUX FALLS    FAIR      37  36  96 S12       29.77R
BROOKINGS      FAIR      34  33  96 S5        29.74R
WATERTOWN      FOG       27  27 100 S8        29.70S VSB 1/4 WCI  19
HURON          FAIR      33  33 100 S12       29.68S WCI  24
SISSETON         N/A     26  24  92 S3        29.69F
ABERDEEN       FOG       14  12  92 CALM      29.66F VSB 1
MITCHELL       FAIR      36  33  89 S10       29.72R
PIERRE         FAIR      20  16  84 CALM      29.61F
MOBRIDGE       FAIR      20  14  77 SE8       29.58F WCI  10
RAPID CITY     FAIR      25  20  81 W3        29.56F
$$

  *****  SOME WEATHER IN NEARBY STATES *****

CITY           SKY/WX    TMP DP  RH WIND       PRES   REMARKS
GLASGOW MT     FAIR      29  23  78 SE8       29.50S WCI  21
GREAT FALLS MT FAIR      40  27  59 S18       29.48F
CHEYENNE WY    FAIR      27  17  66 W8        29.69F WCI  19
SCOTTSBLUFF NE FAIR      27  21  78 N6        29.65F WCI  20
OMAHA NE       FAIR      38  33  82 S13       29.88F
DES MOINES IA  FOG       35  35 100 S10       29.95F VSB 1/2
DAVENPORT IA   FAIR      32  32 100 S6        30.02S FOG
CHICAGO IL     FAIR      32  30  92 S7        30.05R FOG
EAU CLAIRE WI  FOG       25  24  96 CALM      29.88S VSB 1/4
LA CROSSE WI   CLOUDY    36  33  89 S9        29.94R
$$

  *****  SOME NATIONAL WEATHER *****

CITY           SKY/WX    TMP DP  RH WIND       PRES   REMARKS
LA GUARDIA NY  MOCLDY    41  35  79 N3        30.01F
RALEIGH NC     MOCLDY    47  35  63 CALM      30.07R
ATLANTA GA     MOCLDY    58  51  78 NW5       30.10S
NEW ORLEANS LA CLOUDY    70  70 100 S12       30.02F
OKLAHOMA CITY  CLOUDY    47  45  93 S8        29.93S
ALBUQUERQUE NM MOCLDY    39  31  72 NW5       29.99F
SALT LAKE CITY CLOUDY    25  22  88 N7        29.89F FOG     WCI  17
LOS ANGELES CA LGT RAIN  54  50  86 SE10      30.09R
BOISE ID       MIX PCPN  36  33  89 SE17      29.69F
SEATTLE WA     LGT RAIN  46  41  82 E10       29.27R
$$

*** WEATHER ACROSS MANITOBA...SASKATCHEWAN AND ONTARIO ***
                ***ONTARIO***

CITY           SKY/WX    TMP DP  RH WIND       PRES   REMARKS
GERALDTON      CLEAR     12  10  92 CALM      29.80R
THUNDER BAY    CLEAR     19  18  93 NW3       29.81S
SIOUX LOOKOUT  MOCLDY    27  23  86 S6        29.69F WCI  20
TORONTO        DRIZZLE   37  36  93 W13G20    29.98R
BIG TROUT LK   CLOUDY    30  28  93 S8        29.71F WCI  23
PICKLE LAKE    NOT AVBL
DRYDEN         CLEAR     28  25  86 S10       29.66F WCI  19
KENORA         PTCLDY    30  25  80 S12       29.59F WCI  21
$$
                *** MANITOBA***

CITY           SKY/WX    TMP DP  RH WIND       PRES   REMARKS
BRANDON        PTCLDY    28  23  80 SW9       29.47F WCI  20
DAUPHIN        CLOUDY    39  28  65 VRB2      29.38R
ISLAND LAKE    CLOUDY    30  27  86 SE8       29.53R WCI  23
PILOT MOUND      N/A     30  25  80 W8          N/A  WCI  23
THE PAS        CLEAR     27  25  93 SE10      29.25F WCI  17
THOMPSON       NOT AVBL
WINNIPEG       PTCLDY    28  23  80 S17G24    29.52F WCI  16
LYNN LAKE      CLOUDY    32  32 100 SE12      29.28F WCI  23
CHURCHILL      LGT SNOW  10   9  92 S10       29.66F FOG     WCI  -3
GILLAM         FLURRIES  23  21  93 E6        29.57F WCI  16
$$
                ***SASKATCHEWAN***

CITY           SKY/WX    TMP DP  RH WIND       PRES   REMARKS
ESTEVAN        CLEAR     28  23  80 SW18      29.48R WCI  16
KINDERSLEY     PTCLDY    36  30  80 S9        29.28S
LLOYDMINSTER   CLEAR     32  28  86 SW8       29.21R WCI  25
PRINCE ALBERT  CLEAR     25  25 100 SW3       29.25R
REGINA         PTCLDY    37  30  75 SW18      29.40F
YORKTON        CLEAR     36  28  75 S10       29.35S
N. BATTLEFORD  CLEAR     28  25  86 SE6       29.27R WCI  22
LA RONGE       PTCLDY    23  23 100 CALM      29.20R
SASKATOON      PTCLDY    34  30  86 SW7       29.28F
SWIFT CURRENT  CLEAR     37  32  81 SW14      29.36S
$$
NOTE: THESE ARE AUTOMATED STATIONS WITH LIMITED QUALITY CONTROL
      "FAIR" INDICATES FEW OR NO CLOUDS BELOW 12,000 FEET WITH NO
      SIGNIFICANT WEATHER AND/OR OBSTRUCTIONS TO VISIBILITY.
      SKY/WX - SKY CONDITION AND SIGNIFICANT WEATHER.
      TMP - AIR TEMPERATURE.    DP   - DEWPOINT TEMPERATURE.
      RH  - RELATIVE HUMIDITY.  PRES - PRESSURE.
      HX  - HEAT INDEX.         WCI  - WIND CHILL INDEX.
$




USA.gov is the U.S. government's official web portal to all federal, state and local government web resources and services.